Regional Weather Roundup
Issued by NWS Sioux Falls, SD

Home | Current Version | Previous Version | Graphics & Text | Print | Product List | Glossary Off
Versions: 1 2 3 4 5 6 7 8 9 10 11 12 13 14 15 16 17 18 19 20 21 22 23 24 25 26 27 28 29 30 31 32 33 34 35 36 37 38 39 40 41 42 43 44 45 46 47 48 49 50

000
ASUS43 KFSD 211410
RWRFSD

WEATHER ROUNDUP FOR SE SOUTH DAKOTA/SW MINNESOTA/NW IOWA
NATIONAL WEATHER SERVICE SIOUX FALLS SD
900 AM CDT THU SEP 21 2017

NOTE: "FAIR" INDICATES FEW OR NO CLOUDS BELOW 12,000 FEET WITH NO
SIGNIFICANT WEATHER AND OR OBSTRUCTIONS TO VISIBILITY.


SDZ038>040-050-052>070-211500-
SOUTHEAST SOUTH DAKOTA

CITY           SKY/WX    TMP DP  RH WIND       PRES   REMARKS
CHAMBERLAIN    SUNNY     62  52  68 SE15      29.79S
HURON          SUNNY     57  49  74 SE10      29.81F
MADISON        FAIR      57  54  88 S10G20    29.88S
MITCHELL       MOSUNNY   58  50  75 SE16      29.83F
SIOUX FALLS    MOSUNNY   62  54  74 E15       29.87F
WINNER         FAIR      60  50  69 SE14      29.77F
YANKTON        CLOUDY    57  53  86 E6        29.85F
$$

MNZ071-072-080-081-089-090-097-098-211500-
SOUTHWEST MINNESOTA

CITY           SKY/WX    TMP DP  RH WIND       PRES   REMARKS
FAIRMONT       SUNNY     60  54  80 SE8       29.94F
JACKSON        SUNNY     57  52  82 CALM      29.92F
LUVERNE        SUNNY     57  52  82 E7        29.89F
MARSHALL       SUNNY     57  50  77 SE12      29.90F
MONTEVIDEO     SUNNY     57  52  82 S9        29.90F
PIPESTONE      SUNNY     61  52  72 SE12G17   29.89F
REDWOOD FALLS  SUNNY     57  50  77 SE7       29.92F
TRACY          SUNNY     60  53  79 SE8       29.91F
WORTHINGTON    MOSUNNY   59  53  80 E6        29.92F
$$

IAZ001>003-012>014-020>022-031-032-NEZ013-014-SDZ071-211500-
NORTHWEST IOWA

CITY           SKY/WX    TMP DP  RH WIND       PRES   REMARKS
CHEROKEE       PTSUNNY   63  59  87 E6        29.89F
DENISON        MOSUNNY   68  63  83 E10       29.90S
ESTHERVILLE    SUNNY     59  55  87 SE9       29.92F
ORANGE CITY    MOSUNNY   63  55  77 SE9       29.88S
SHELDON        SUNNY     61  55  82 SE10      29.87F
SIOUX CITY     PTSUNNY   62  59  90 SE6       29.86F
SPENCER        SUNNY     61  56  83 E10       29.91F
STORM LAKE     SUNNY     61  57  88 SE12G18   29.91F
$$

ABBREVIATIONS USED IN REMARKS
   TC - TEMPERATURE IN CELSIUS
  WCI - WIND CHILL INDEX
   HX - HEAT INDEX
  VSB - VISIBILITY





USA.gov is the U.S. government's official web portal to all federal, state and local government web resources and services.